Time,TemperatureF,DewpointF,PressureIn,WindDirection,WindDirectionDegrees,WindSpeedMPH,WindSpeedGustMPH,Humidity,HourlyPrecipIn,Conditions,Clouds,dailyrainin,SoftwareType,DateUTC
2013-03-22 00:03:00,10.4,4.6,29.90,NE,38,2.1,3.5,77,0.00,CLR,SKC,0.00,WeatherDisplay:10.37,2013-03-22 05:03:00,
2013-03-22 00:08:00,10.5,4.7,29.90,NE,38,1.7,2.3,77,0.00,CLR,SKC,0.00,WeatherDisplay:10.37,2013-03-22 05:08:00,
2013-03-22 00:13:00,10.7,4.9,29.91,NE,38,1.0,2.3,77,0.00,CLR,SKC,0.00,WeatherDisplay:10.37,2013-03-22 05:13:00,
2013-03-22 00:18:00,10.9,5.1,29.91,NE,38,1.1,2.3,77,0.00,CLR,SKC,0.00,WeatherDisplay:10.37,2013-03-22 05:18:00,
2013-03-22 00:23:00,11.1,5.6,29.91,NE,38,0.0,1.1,78,0.00,CLR,SKC,0.00,WeatherDisplay:10.37,2013-03-22 05:23:00,
2013-03-22 00:29:00,11.4,5.6,29.91,NE,38,0.7,2.3,77,0.00,CLR,SKC,0.00,WeatherDisplay:10.37,2013-03-22 05:29:00,
2013-03-22 00:34:00,11.4,5.6,29.91,NE,38,0.0,1.1,77,0.00,CLR,SKC,0.00,WeatherDisplay:10.37,2013-03-22 05:34:00,
2013-03-22 00:39:00,11.2,5.7,29.91,NE,38,0.0,0.0,78,0.00,CLR,SKC,0.00,WeatherDisplay:10.37,2013-03-22 05:39:00,
2013-03-22 00:44:00,11.1,5.3,29.91,NE,38,0.0,0.0,77,0.00,CLR,SKC,0.00,WeatherDisplay:10.37,2013-03-22 05:44:00,
2013-03-22 00:49:00,11.2,5.4,29.90,NE,38,0.0,0.0,77,0.00,CLR,SKC,0.00,WeatherDisplay:10.37,2013-03-22 05:49:00,
2013-03-22 00:54:00,11.6,5.8,29.91,NE,38,0.6,1.1,77,0.00,CLR,SKC,0.00,WeatherDisplay:10.37,2013-03-22 05:54:00,
2013-03-22 00:59:00,11.7,6.2,29.91,NE,38,0.0,0.0,78,0.00,CLR,SKC,0.00,WeatherDisplay:10.37,2013-03-22 05:59:00,
2013-03-22 01:04:00,11.6,6.1,29.91,NE,38,0.0,0.0,78,0.00,CLR,SKC,0.00,WeatherDisplay:10.37,2013-03-22 06:04:00,
2013-03-22 01:09:00,11.6,5.8,29.91,NE,38,0.0,0.0,77,0.00,CLR,SKC,0.00,WeatherDisplay:10.37,2013-03-22 06:09:00,
2013-03-22 01:14:00,11.6,5.8,29.91,NE,38,0.0,0.0,77,0.00,CLR,SKC,0.00,WeatherDisplay:10.37,2013-03-22 06:14:00,
2013-03-22 01:19:00,11.6,6.1,29.91,NE,38,0.0,0.0,78,0.00,CLR,SKC,0.00,WeatherDisplay:10.37,2013-03-22 06:19:00,
2013-03-22 01:24:00,11.6,6.1,29.91,NE,38,0.0,0.0,78,0.00,CLR,SKC,0.00,WeatherDisplay:10.37,2013-03-22 06:24:00,
2013-03-22 01:29:00,11.7,6.2,29.91,NE,38,0.0,0.0,78,0.00,CLR,SKC,0.00,WeatherDisplay:10.37,2013-03-22 06:29:00,
2013-03-22 01:34:00,11.6,6.1,29.91,NE,38,0.0,0.0,78,0.00,CLR,SKC,0.00,WeatherDisplay:10.37,2013-03-22 06:34:00,
2013-03-22 01:39:00,11.5,6.0,29.91,NE,38,0.0,0.0,78,0.00,CLR,SKC,0.00,WeatherDisplay:10.37,2013-03-22 06:39:00,
2013-03-22 01:44:00,11.3,5.8,29.91,NE,38,0.0,0.0,78,0.00,CLR,SKC,0.00,WeatherDisplay:10.37,2013-03-22 06:44:00,
2013-03-22 01:49:00,11.1,5.6,29.91,NE,38,0.0,0.0,78,0.00,CLR,SKC,0.00,WeatherDisplay:10.37,2013-03-22 06:49:00,
2013-03-22 01:54:00,11.1,5.6,29.91,NE,38,0.0,0.0,78,0.00,CLR,SKC,0.00,WeatherDisplay:10.37,2013-03-22 06:54:00,
2013-03-22 01:59:00,10.9,5.4,29.91,NE,38,0.0,1.1,78,0.00,CLR,SKC,0.00,WeatherDisplay:10.37,2013-03-22 06:59:00,
2013-03-22 02:04:00,10.5,5.0,29.91,NE,38,0.0,0.0,78,0.00,CLR,SKC,0.00,WeatherDisplay:10.37,2013-03-22 07:04:00,
2013-03-22 02:09:00,10.3,4.8,29.91,NE,38,0.0,0.0,78,0.00,CLR,SKC,0.00,WeatherDisplay:10.37,2013-03-22 07:09:00,
2013-03-22 02:14:00,10.4,4.6,29.91,NE,38,0.0,0.0,77,0.00,CLR,SKC,0.00,WeatherDisplay:10.37,2013-03-22 07:14:00,
2013-03-22 02:19:00,10.4,4.9,29.91,NE,38,0.0,0.0,78,0.00,CLR,SKC,0.00,WeatherDisplay:10.37,2013-03-22 07:19:00,
2013-03-22 02:24:00,10.4,4.9,29.91,NE,38,0.0,0.0,78,0.00,CLR,SKC,0.00,WeatherDisplay:10.37,2013-03-22 07:24:00,
2013-03-22 02:29:00,10.2,4.7,29.91,NE,38,0.0,0.0,78,0.00,CLR,SKC,0.00,WeatherDisplay:10.37,2013-03-22 07:29:00,
2013-03-22 02:34:00,10.1,4.6,29.91,NE,38,0.0,0.0,78,0.00,CLR,SKC,0.00,WeatherDisplay:10.37,2013-03-22 07:34:00,
2013-03-22 02:39:00,10.0,4.2,29.91,NE,38,0.0,0.0,77,0.00,CLR,SKC,0.00,WeatherDisplay:10.37,2013-03-22 07:39:00,
2013-03-22 02:44:00,10.1,4.3,29.91,NE,38,0.0,0.0,77,0.00,CLR,SKC,0.00,WeatherDisplay:10.37,2013-03-22 07:44:00,
2013-03-22 02:49:00,10.2,4.4,29.91,NE,38,0.0,0.0,77,0.00,CLR,SKC,0.00,WeatherDisplay:10.37,2013-03-22 07:49:00,
2013-03-22 02:54:00,10.3,4.8,29.90,NE,38,0.0,0.0,78,0.00,CLR,SKC,0.00,WeatherDisplay:10.37,2013-03-22 07:54:00,
2013-03-22 02:59:00,10.4,4.6,29.90,NE,38,0.0,0.0,77,0.00,CLR,SKC,0.00,WeatherDisplay:10.37,2013-03-22 07:59:00,
2013-03-22 03:04:00,10.4,4.6,29.90,NE,38,0.0,0.0,77,0.00,CLR,SKC,0.00,WeatherDisplay:10.37,2013-03-22 08:04:00,
2013-03-22 03:09:00,10.3,4.8,29.90,NE,38,0.0,0.0,78,0.00,CLR,SKC,0.00,WeatherDisplay:10.37,2013-03-22 08:09:00,
2013-03-22 03:14:00,10.1,4.6,29.90,NE,38,0.0,0.0,78,0.00,CLR,SKC,0.00,WeatherDisplay:10.37,2013-03-22 08:14:00,
2013-03-22 03:19:00,10.0,4.5,29.90,NE,38,0.0,0.0,78,0.00,CLR,SKC,0.00,WeatherDisplay:10.37,2013-03-22 08:19:00,
2013-03-22 03:24:00,9.9,4.4,29.90,NE,38,0.0,0.0,78,0.00,CLR,SKC,0.00,WeatherDisplay:10.37,2013-03-22 08:24:00,
2013-03-22 03:29:00,9.8,4.0,29.90,NE,38,0.0,0.0,77,0.00,CLR,SKC,0.00,WeatherDisplay:10.37,2013-03-22 08:29:00,
2013-03-22 03:34:00,9.8,4.3,29.90,NE,38,0.0,0.0,78,0.00,CLR,SKC,0.00,WeatherDisplay:10.37,2013-03-22 08:34:00,
2013-03-22 03:39:00,9.8,4.0,29.89,NE,38,0.0,0.0,77,0.00,CLR,SKC,0.00,WeatherDisplay:10.37,2013-03-22 08:39:00,
2013-03-22 03:44:00,10.0,4.2,29.89,NE,38,0.0,0.0,77,0.00,CLR,SKC,0.00,WeatherDisplay:10.37,2013-03-22 08:44:00,
2013-03-22 03:49:00,10.1,4.3,29.89,NE,38,0.0,0.0,77,0.00,CLR,SKC,0.00,WeatherDisplay:10.37,2013-03-22 08:49:00,
2013-03-22 03:54:00,10.1,4.6,29.89,NE,38,0.0,0.0,78,0.00,CLR,SKC,0.00,WeatherDisplay:10.37,2013-03-22 08:54:00,
2013-03-22 03:59:00,9.7,4.2,29.89,NE,38,0.0,0.0,78,0.00,CLR,SKC,0.00,WeatherDisplay:10.37,2013-03-22 08:59:00,
2013-03-22 04:04:00,9.3,3.5,29.89,NE,38,0.0,0.0,77,0.00,CLR,SKC,0.00,WeatherDisplay:10.37,2013-03-22 09:04:00,
2013-03-22 04:09:00,9.1,3.6,29.89,NE,38,0.0,0.0,78,0.00,CLR,SKC,0.00,WeatherDisplay:10.37,2013-03-22 09:09:00,
2013-03-22 04:14:00,8.6,3.1,29.89,NE,38,0.0,0.0,78,0.00,CLR,SKC,0.00,WeatherDisplay:10.37,2013-03-22 09:14:00,
2013-03-22 04:19:00,8.3,2.9,29.89,NE,38,0.0,0.0,78,0.00,CLR,SKC,0.00,WeatherDisplay:10.37,2013-03-22 09:19:00,
2013-03-22 04:24:00,8.2,2.8,29.89,NE,38,0.0,0.0,78,0.00,CLR,SKC,0.00,WeatherDisplay:10.37,2013-03-22 09:24:00,
2013-03-22 04:29:00,8.1,2.7,29.89,NE,38,0.0,0.0,78,0.00,CLR,SKC,0.00,WeatherDisplay:10.37,2013-03-22 09:29:00,
2013-03-22 04:34:00,8.2,2.8,29.89,NE,38,0.0,0.0,78,0.00,CLR,SKC,0.00,WeatherDisplay:10.37,2013-03-22 09:34:00,
2013-03-22 04:39:00,8.3,2.9,29.89,NE,38,0.0,0.0,78,0.00,CLR,SKC,0.00,WeatherDisplay:10.37,2013-03-22 09:39:00,
2013-03-22 04:44:00,8.5,3.0,29.89,NE,38,0.0,0.0,78,0.00,CLR,SKC,0.00,WeatherDisplay:10.37,2013-03-22 09:44:00,
2013-03-22 04:49:00,8.7,3.2,29.88,NE,38,0.0,0.0,78,0.00,CLR,SKC,0.00,WeatherDisplay:10.37,2013-03-22 09:49:00,
2013-03-22 04:54:00,9.1,3.6,29.89,NE,38,0.0,0.0,78,0.00,CLR,SKC,0.00,WeatherDisplay:10.37,2013-03-22 09:54:00,
2013-03-22 04:59:00,9.2,3.7,29.89,NE,38,0.4,1.0,78,0.00,CLR,SKC,0.00,WeatherDisplay:10.37,2013-03-22 09:59:00,
2013-03-22 05:04:00,9.4,3.9,29.89,NE,38,0.0,1.1,78,0.00,CLR,SKC,0.00,WeatherDisplay:10.37,2013-03-22 10:04:00,
2013-03-22 05:09:00,9.5,4.0,29.89,NE,38,0.0,0.0,78,0.00,CLR,SKC,0.00,WeatherDisplay:10.37,2013-03-22 10:09:00,
2013-03-22 05:14:00,9.3,3.8,29.89,NE,38,0.0,0.0,78,0.00,CLR,SKC,0.00,WeatherDisplay:10.37,2013-03-22 10:14:00,
2013-03-22 05:19:00,9.1,3.6,29.89,NE,38,0.0,0.0,78,0.00,CLR,SKC,0.00,WeatherDisplay:10.37,2013-03-22 10:19:00,
2013-03-22 05:24:00,9.2,3.7,29.89,NE,38,0.2,1.1,78,0.00,CLR,SKC,0.00,WeatherDisplay:10.37,2013-03-22 10:24:00,
2013-03-22 05:29:00,9.3,3.8,29.89,NE,38,0.6,1.1,78,0.00,CLR,SKC,0.00,WeatherDisplay:10.37,2013-03-22 10:29:00,
2013-03-22 05:34:00,9.4,3.9,29.89,NE,38,0.0,0.0,78,0.00,CLR,SKC,0.00,WeatherDisplay:10.37,2013-03-22 10:34:00,
2013-03-22 05:39:00,9.3,3.8,29.89,NE,38,0.0,0.0,78,0.00,CLR,SKC,0.00,WeatherDisplay:10.37,2013-03-22 10:39:00,
2013-03-22 05:44:00,9.1,3.6,29.89,NE,38,0.0,0.0,78,0.00,CLR,SKC,0.00,WeatherDisplay:10.37,2013-03-22 10:44:00,
2013-03-22 05:49:00,9.0,3.5,29.89,NE,38,0.0,0.0,78,0.00,CLR,SKC,0.00,WeatherDisplay:10.37,2013-03-22 10:49:00,
2013-03-22 05:54:00,9.0,3.5,29.89,NE,38,0.6,1.1,78,0.00,CLR,SKC,0.00,WeatherDisplay:10.37,2013-03-22 10:54:00,
2013-03-22 05:59:00,9.1,3.6,29.89,NE,38,0.0,0.0,78,0.00,CLR,SKC,0.00,WeatherDisplay:10.37,2013-03-22 10:59:00,
2013-03-22 06:04:00,9.3,3.8,29.89,NE,38,0.0,0.0,78,0.00,CLR,SKC,0.00,WeatherDisplay:10.37,2013-03-22 11:04:00,
2013-03-22 06:09:00,9.4,3.9,29.89,NE,38,0.0,0.0,78,0.00,CLR,SKC,0.00,WeatherDisplay:10.37,2013-03-22 11:09:00,
2013-03-22 06:14:00,9.4,3.9,29.89,NE,38,0.0,0.0,78,0.00,CLR,SKC,0.00,WeatherDisplay:10.37,2013-03-22 11:14:00,
2013-03-22 06:19:00,9.4,3.6,29.89,NE,38,0.0,0.0,77,0.00,CLR,SKC,0.00,WeatherDisplay:10.37,2013-03-22 11:19:00,
2013-03-22 06:24:00,9.5,4.0,29.89,NE,38,0.0,0.0,78,0.00,CLR,SKC,0.00,WeatherDisplay:10.37,2013-03-22 11:24:00,
2013-03-22 06:29:00,9.2,3.7,29.90,NE,38,0.0,0.0,78,0.00,CLR,SKC,0.00,WeatherDisplay:10.37,2013-03-22 11:29:00,
2013-03-22 06:34:00,8.9,3.4,29.90,NE,38,0.0,0.0,78,0.00,CLR,SKC,0.00,WeatherDisplay:10.37,2013-03-22 11:34:00,
2013-03-22 06:39:00,8.6,3.1,29.89,NE,38,0.0,0.0,78,0.00,CLR,SKC,0.00,WeatherDisplay:10.37,2013-03-22 11:39:00,
2013-03-22 06:44:00,8.4,2.9,29.90,NE,38,0.0,1.1,78,0.00,CLR,SKC,0.00,WeatherDisplay:10.37,2013-03-22 11:44:00,
2013-03-22 06:49:00,8.3,2.9,29.90,NE,38,0.0,0.0,78,0.00,CLR,SKC,0.00,WeatherDisplay:10.37,2013-03-22 11:49:00,
2013-03-22 06:54:00,8.1,2.7,29.90,NE,38,0.0,0.0,78,0.00,CLR,SKC,0.00,WeatherDisplay:10.37,2013-03-22 11:54:00,
2013-03-22 06:59:00,7.9,2.5,29.90,NE,38,0.0,0.0,78,0.00,CLR,SKC,0.00,WeatherDisplay:10.37,2013-03-22 11:59:00,
2013-03-22 07:04:00,7.7,2.3,29.90,NE,38,0.1,1.0,78,0.00,CLR,SKC,0.00,WeatherDisplay:10.37,2013-03-22 12:04:00,
2013-03-22 07:09:00,7.4,2.0,29.90,NE,38,0.0,0.0,78,0.00,CLR,SKC,0.00,WeatherDisplay:10.37,2013-03-22 12:09:00,
2013-03-22 07:14:00,7.4,2.0,29.90,NE,38,0.9,2.3,78,0.00,CLR,SKC,0.00,WeatherDisplay:10.37,2013-03-22 12:14:00,
2013-03-22 07:19:00,7.5,2.1,29.90,NE,38,0.0,0.0,78,0.00,CLR,SKC,0.00,WeatherDisplay:10.37,2013-03-22 12:19:00,
2013-03-22 07:24:00,7.9,2.5,29.90,NE,38,0.0,1.1,78,0.00,CLR,SKC,0.00,WeatherDisplay:10.37,2013-03-22 12:24:00,
2013-03-22 07:29:00,8.2,2.8,29.89,NE,38,0.1,2.3,78,0.00,CLR,SKC,0.00,WeatherDisplay:10.37,2013-03-22 12:29:00,
2013-03-22 07:34:00,8.2,2.8,29.89,NE,38,0.0,0.0,78,0.00,CLR,SKC,0.00,WeatherDisplay:10.37,2013-03-22 12:34:00,
2013-03-22 07:39:00,8.0,2.6,29.89,NE,38,0.0,1.1,78,0.00,CLR,SKC,0.00,WeatherDisplay:10.37,2013-03-22 12:39:00,
2013-03-22 07:44:00,8.2,2.5,29.89,NE,38,0.0,0.0,77,0.00,CLR,SKC,0.00,WeatherDisplay:10.37,2013-03-22 12:44:00,
2013-03-22 07:49:00,8.7,3.2,29.90,NE,38,0.0,0.0,78,0.00,CLR,SKC,0.00,WeatherDisplay:10.37,2013-03-22 12:49:00,
2013-03-22 07:54:00,9.1,3.6,29.90,NE,38,0.0,0.0,78,0.00,CLR,SKC,0.00,WeatherDisplay:10.37,2013-03-22 12:54:00,
2013-03-22 07:59:00,9.7,4.2,29.90,NE,38,0.0,0.0,78,0.00,CLR,SKC,0.00,WeatherDisplay:10.37,2013-03-22 12:59:00,
2013-03-22 08:04:00,10.3,4.8,29.90,NE,38,0.0,0.0,78,0.00,CLR,SKC,0.00,WeatherDisplay:10.37,2013-03-22 13:04:00,
2013-03-22 08:09:00,10.8,5.3,29.90,NE,38,0.0,0.0,78,0.00,CLR,SKC,0.00,WeatherDisplay:10.37,2013-03-22 13:09:00,
2013-03-22 08:14:00,10.7,5.5,29.90,NE,38,0.6,2.0,79,0.00,CLR,SKC,0.00,WeatherDisplay:10.37,2013-03-22 13:14:00,
2013-03-22 08:19:00,10.4,4.9,29.90,NE,38,0.1,1.0,78,0.00,CLR,SKC,0.00,WeatherDisplay:10.37,2013-03-22 13:19:00,
2013-03-22 08:24:00,10.7,5.2,29.90,NE,38,0.0,0.0,78,0.00,CLR,SKC,0.00,WeatherDisplay:10.37,2013-03-22 13:24:00,
2013-03-22 08:29:00,11.2,5.7,29.90,NE,38,0.0,0.0,78,0.00,CLR,SKC,0.00,WeatherDisplay:10.37,2013-03-22 13:29:00,
2013-03-22 08:34:00,11.6,6.1,29.90,NE,38,0.0,0.0,78,0.00,CLR,SKC,0.00,WeatherDisplay:10.37,2013-03-22 13:34:00,
2013-03-22 08:39:00,11.9,6.4,29.90,NE,38,0.0,0.0,78,0.00,CLR,SKC,0.00,WeatherDisplay:10.37,2013-03-22 13:39:00,
2013-03-22 08:44:00,12.4,6.8,29.90,NE,38,0.0,0.0,78,0.00,CLR,SKC,0.00,WeatherDisplay:10.37,2013-03-22 13:44:00,
2013-03-22 08:49:00,13.1,7.5,29.90,NE,38,0.4,1.1,78,0.00,CLR,SKC,0.00,WeatherDisplay:10.37,2013-03-22 13:49:00,
2013-03-22 08:54:00,13.7,8.1,29.90,NE,38,0.2,1.0,78,0.00,CLR,SKC,0.00,WeatherDisplay:10.37,2013-03-22 13:54:00,
2013-03-22 08:59:00,14.2,8.6,29.90,NE,38,0.0,0.0,78,0.00,CLR,SKC,0.00,WeatherDisplay:10.37,2013-03-22 13:59:00,
2013-03-22 09:04:00,14.5,8.9,29.90,NE,38,0.1,2.3,78,0.00,CLR,SKC,0.00,WeatherDisplay:10.37,2013-03-22 14:04:00,
2013-03-22 09:09:00,14.9,9.3,29.90,NE,38,0.0,0.0,78,0.00,CLR,SKC,0.00,WeatherDisplay:10.37,2013-03-22 14:09:00,
2013-03-22 09:14:00,15.5,9.9,29.90,NE,38,2.3,3.5,78,0.00,CLR,SKC,0.00,WeatherDisplay:10.37,2013-03-22 14:14:00,
2013-03-22 09:19:00,16.8,11.1,29.89,NE,38,0.6,2.3,78,0.00,CLR,SKC,0.00,WeatherDisplay:10.37,2013-03-22 14:19:00,
2013-03-22 09:24:00,18.0,12.0,29.89,NE,38,0.1,1.1,77,0.00,CLR,SKC,0.00,WeatherDisplay:10.37,2013-03-22 14:24:00,
2013-03-22 09:29:00,18.9,12.6,29.89,NE,38,1.8,3.5,76,0.00,CLR,SKC,0.00,WeatherDisplay:10.37,2013-03-22 14:29:00,
2013-03-22 09:34:00,19.6,13.0,29.88,NE,38,2.4,3.5,75,0.00,CLR,SKC,0.00,WeatherDisplay:10.37,2013-03-22 14:34:00,
2013-03-22 09:39:00,20.6,13.9,29.88,NE,38,2.0,3.5,75,0.00,CLR,SKC,0.00,WeatherDisplay:10.37,2013-03-22 14:39:00,
2013-03-22 09:44:00,21.6,14.3,29.88,NE,38,1.0,3.5,73,0.00,CLR,SKC,0.00,WeatherDisplay:10.37,2013-03-22 14:44:00,
2013-03-22 09:49:00,22.2,14.2,29.88,NE,38,1.5,3.5,71,0.00,CLR,SKC,0.00,WeatherDisplay:10.37,2013-03-22 14:49:00,
2013-03-22 09:54:00,23.0,15.0,29.88,NE,38,0.9,3.5,71,0.00,CLR,SKC,0.00,WeatherDisplay:10.37,2013-03-22 14:54:00,
2013-03-22 09:59:00,23.7,15.3,29.88,NE,38,1.1,3.5,70,0.00,CLR,SKC,0.00,WeatherDisplay:10.37,2013-03-22 14:59:00,
2013-03-22 10:04:00,24.3,15.3,29.88,NE,38,1.6,3.5,68,0.00,CLR,SKC,0.00,WeatherDisplay:10.37,2013-03-22 15:04:00,
2013-03-22 10:09:00,24.5,15.1,29.88,NE,37,3.6,4.0,67,0.00,CLR,SKC,0.00,WeatherDisplay:10.37,2013-03-22 15:09:00,
2013-03-22 10:14:00,25.3,16.5,29.88,NE,38,0.4,3.5,69,0.00,CLR,SKC,0.00,WeatherDisplay:10.37,2013-03-22 15:14:00,
2013-03-22 10:19:00,26.2,16.7,29.88,NE,37,0.7,3.5,67,0.00,CLR,SKC,0.00,WeatherDisplay:10.37,2013-03-22 15:19:00,
2013-03-22 10:24:00,26.3,16.1,29.88,NE,40,0.6,3.5,65,0.00,CLR,SKC,0.00,WeatherDisplay:10.37,2013-03-22 15:24:00,
2013-03-22 10:29:00,26.7,17.2,29.89,NE,41,1.8,3.5,67,0.00,CLR,SKC,0.00,WeatherDisplay:10.37,2013-03-22 15:29:00,
2013-03-22 10:34:00,27.6,17.4,29.88,NE,42,2.6,4.0,65,0.00,CLR,SKC,0.00,WeatherDisplay:10.37,2013-03-22 15:34:00,
2013-03-22 10:39:00,28.1,17.8,29.88,NE,44,1.6,3.5,65,0.00,CLR,SKC,0.00,WeatherDisplay:10.37,2013-03-22 15:39:00,
2013-03-22 10:44:00,28.7,18.1,29.88,NE,44,0.1,3.5,64,0.00,CLR,SKC,0.00,WeatherDisplay:10.37,2013-03-22 15:44:00,
2013-03-22 10:49:00,29.1,17.3,29.88,NE,44,0.2,3.5,61,0.00,CLR,SKC,0.00,WeatherDisplay:10.37,2013-03-22 15:49:00,
2013-03-22 10:54:00,29.7,19.0,29.88,NE,44,0.7,2.3,64,0.00,CLR,SKC,0.00,WeatherDisplay:10.37,2013-03-22 15:54:00,
2013-03-22 10:59:00,29.3,18.6,29.88,NE,44,0.1,1.1,64,0.00,CLR,SKC,0.00,WeatherDisplay:10.37,2013-03-22 15:59:00,
2013-03-22 11:04:00,29.2,18.5,29.88,NE,44,0.9,2.3,64,0.00,CLR,SKC,0.00,WeatherDisplay:10.37,2013-03-22 16:04:00,
2013-03-22 11:09:00,29.2,18.5,29.88,NE,44,1.3,2.3,64,0.00,CLR,SKC,0.00,WeatherDisplay:10.37,2013-03-22 16:09:00,
2013-03-22 11:14:00,27.9,17.6,29.88,NE,45,1.0,3.5,65,0.00,CLR,SKC,0.00,WeatherDisplay:10.37,2013-03-22 16:14:00,
2013-03-22 11:19:00,27.7,18.5,29.88,NE,48,1.4,3.5,68,0.00,CLR,SKC,0.00,WeatherDisplay:10.37,2013-03-22 16:19:00,
2013-03-22 11:24:00,27.6,18.1,29.88,NE,49,2.3,3.5,67,0.00,CLR,SKC,0.00,WeatherDisplay:10.37,2013-03-22 16:24:00,
2013-03-22 11:29:00,27.5,18.3,29.88,NE,51,2.2,3.5,68,0.00,CLR,SKC,0.00,WeatherDisplay:10.37,2013-03-22 16:29:00,
2013-03-22 11:34:00,27.5,18.3,29.88,NE,52,0.1,2.3,68,0.00,CLR,SKC,0.00,WeatherDisplay:10.37,2013-03-22 16:34:00,
2013-03-22 11:39:00,27.9,18.7,29.88,NE,53,1.4,3.0,68,0.00,CLR,SKC,0.00,WeatherDisplay:10.37,2013-03-22 16:39:00,
2013-03-22 11:44:00,28.3,18.7,29.88,NE,53,1.8,2.3,67,0.00,CLR,SKC,0.00,WeatherDisplay:10.37,2013-03-22 16:44:00,
2013-03-22 11:49:00,28.5,18.2,29.88,NE,53,1.5,3.0,65,0.00,CLR,SKC,0.00,WeatherDisplay:10.37,2013-03-22 16:49:00,
2013-03-22 11:54:00,29.1,18.8,29.88,NE,53,0.7,2.3,65,0.00,CLR,SKC,0.00,WeatherDisplay:10.37,2013-03-22 16:54:00,
2013-03-22 11:59:00,30.0,19.7,29.88,NE,47,1.2,5.0,65,0.00,CLR,SKC,0.00,WeatherDisplay:10.37,2013-03-22 16:59:00,
2013-03-22 12:04:00,30.9,19.0,29.87,NE,51,1.1,4.0,61,0.00,CLR,SKC,0.00,WeatherDisplay:10.37,2013-03-22 17:04:00,
2013-03-22 12:09:00,31.3,19.0,29.87,NE,51,1.4,3.5,60,0.00,CLR,SKC,0.00,WeatherDisplay:10.37,2013-03-22 17:09:00,
2013-03-22 12:14:00,31.4,18.3,29.87,NE,49,3.5,5.0,58,0.00,CLR,SKC,0.00,WeatherDisplay:10.37,2013-03-22 17:14:00,
2013-03-22 12:19:00,31.0,17.9,29.88,NE,49,2.6,4.0,58,0.00,CLR,SKC,0.00,WeatherDisplay:10.37,2013-03-22 17:19:00,
2013-03-22 12:24:00,30.5,18.3,29.87,NE,49,1.5,3.5,60,0.00,CLR,SKC,0.00,WeatherDisplay:10.37,2013-03-22 17:24:00,
2013-03-22 12:29:00,30.7,17.7,29.87,NE,49,2.9,5.0,58,0.00,CLR,SKC,0.00,WeatherDisplay:10.37,2013-03-22 17:29:00,
2013-03-22 12:34:00,30.8,18.1,29.87,NE,49,0.5,3.5,59,0.00,CLR,SKC,0.00,WeatherDisplay:10.37,2013-03-22 17:34:00,
2013-03-22 12:39:00,31.3,19.4,29.87,NE,49,0.2,3.5,61,0.00,CLR,SKC,0.00,WeatherDisplay:10.37,2013-03-22 17:39:00,
2013-03-22 12:44:00,32.0,19.3,29.87,NE,49,0.5,2.3,59,0.00,CLR,SKC,0.00,WeatherDisplay:10.37,2013-03-22 17:44:00,
2013-03-22 12:49:00,32.7,19.9,29.87,NE,49,1.1,2.3,59,0.00,CLR,SKC,0.00,WeatherDisplay:10.37,2013-03-22 17:49:00,
2013-03-22 12:54:00,32.9,19.3,29.87,NE,48,0.6,3.5,57,0.00,CLR,SKC,0.00,WeatherDisplay:10.37,2013-03-22 17:54:00,
2013-03-22 12:59:00,32.8,20.0,29.87,NE,49,1.5,3.0,59,0.00,CLR,SKC,0.00,WeatherDisplay:10.37,2013-03-22 17:59:00,
2013-03-22 13:04:00,32.5,18.9,29.87,NE,49,0.8,3.5,57,0.00,CLR,SKC,0.00,WeatherDisplay:10.37,2013-03-22 18:04:00,
2013-03-22 13:09:00,32.9,19.3,29.87,NE,48,1.0,2.3,57,0.00,CLR,SKC,0.00,WeatherDisplay:10.37,2013-03-22 18:09:00,
2013-03-22 13:14:00,33.0,18.6,29.87,NE,49,0.0,1.1,55,0.00,CLR,SKC,0.00,WeatherDisplay:10.37,2013-03-22 18:14:00,
2013-03-22 13:19:00,33.0,18.1,29.87,NE,49,0.3,2.3,54,0.00,CLR,SKC,0.00,WeatherDisplay:10.37,2013-03-22 18:19:00,
2013-03-22 13:24:00,32.6,19.0,29.88,NE,54,1.7,3.5,57,0.00,CLR,SKC,0.00,WeatherDisplay:10.37,2013-03-22 18:24:00,
2013-03-22 13:29:00,31.9,19.2,29.88,NE,53,0.5,2.3,59,0.00,CLR,SKC,0.00,WeatherDisplay:10.37,2013-03-22 18:29:00,
2013-03-22 13:34:00,31.6,18.1,29.88,NE,55,0.6,3.5,57,0.00,CLR,SKC,0.00,WeatherDisplay:10.37,2013-03-22 18:34:00,
2013-03-22 13:39:00,31.7,19.8,29.88,NE,55,0.9,2.3,61,0.00,CLR,SKC,0.00,WeatherDisplay:10.37,2013-03-22 18:39:00,
2013-03-22 13:44:00,31.7,19.4,29.87,NE,55,0.6,2.3,60,0.00,CLR,SKC,0.00,WeatherDisplay:10.37,2013-03-22 18:44:00,
2013-03-22 13:49:00,31.9,19.2,29.88,NE,55,0.1,1.1,59,0.00,CLR,SKC,0.00,WeatherDisplay:10.37,2013-03-22 18:49:00,
2013-03-22 13:54:00,31.9,19.6,29.87,NE,55,0.0,1.1,60,0.00,CLR,SKC,0.00,WeatherDisplay:10.37,2013-03-22 18:54:00,
2013-03-22 13:59:00,32.6,20.2,29.87,NE,55,0.2,3.5,60,0.00,CLR,SKC,0.00,WeatherDisplay:10.37,2013-03-22 18:59:00,
2013-03-22 14:04:00,32.8,19.6,29.87,NE,56,1.6,2.3,58,0.00,CLR,SKC,0.00,WeatherDisplay:10.37,2013-03-22 19:04:00,
2013-03-22 14:09:00,32.4,19.7,29.87,ENE,58,0.9,3.5,59,0.00,CLR,SKC,0.00,WeatherDisplay:10.37,2013-03-22 19:09:00,
2013-03-22 14:14:00,31.9,20.0,29.87,ENE,59,0.2,2.3,61,0.00,CLR,SKC,0.00,WeatherDisplay:10.37,2013-03-22 19:14:00,
2013-03-22 14:19:00,31.6,18.5,29.87,ENE,59,0.0,0.0,58,0.00,CLR,SKC,0.00,WeatherDisplay:10.37,2013-03-22 19:19:00,
2013-03-22 14:24:00,31.8,19.5,29.86,ENE,59,0.3,3.5,60,0.00,CLR,SKC,0.00,WeatherDisplay:10.37,2013-03-22 19:24:00,
2013-03-22 14:29:00,32.2,19.5,29.86,ENE,61,1.3,3.5,59,0.00,CLR,SKC,0.00,WeatherDisplay:10.37,2013-03-22 19:29:00,
2013-03-22 14:34:00,31.5,18.8,29.86,ENE,63,0.0,2.3,59,0.00,CLR,SKC,0.00,WeatherDisplay:10.37,2013-03-22 19:34:00,
2013-03-22 14:39:00,31.4,19.5,29.86,ENE,62,0.2,2.3,61,0.00,CLR,SKC,0.00,WeatherDisplay:10.37,2013-03-22 19:39:00,
2013-03-22 14:44:00,31.6,18.9,29.86,ENE,63,0.8,2.3,59,0.00,CLR,SKC,0.00,WeatherDisplay:10.37,2013-03-22 19:44:00,
2013-03-22 14:49:00,31.7,19.0,29.86,ENE,62,0.9,3.5,59,0.00,CLR,SKC,0.00,WeatherDisplay:10.37,2013-03-22 19:49:00,
2013-03-22 14:54:00,32.1,19.0,29.86,ENE,62,0.0,1.1,58,0.00,CLR,SKC,0.00,WeatherDisplay:10.37,2013-03-22 19:54:00,
2013-03-22 14:59:00,32.6,19.8,29.86,ENE,62,0.0,0.0,59,0.00,CLR,SKC,0.00,WeatherDisplay:10.37,2013-03-22 19:59:00,
2013-03-22 15:04:00,32.6,20.2,29.86,East,80,1.6,3.5,60,0.00,CLR,SKC,0.00,WeatherDisplay:10.37,2013-03-22 20:04:00,
2013-03-22 15:09:00,31.9,18.4,29.86,East,80,0.0,0.0,57,0.00,CLR,SKC,0.00,WeatherDisplay:10.37,2013-03-22 20:09:00,
2013-03-22 15:14:00,31.5,18.4,29.86,East,80,0.0,0.0,58,0.00,CLR,SKC,0.00,WeatherDisplay:10.37,2013-03-22 20:14:00,
2013-03-22 15:19:00,31.5,18.8,29.86,East,80,0.7,2.3,59,0.00,CLR,SKC,0.00,WeatherDisplay:10.37,2013-03-22 20:19:00,
2013-03-22 15:24:00,31.3,17.8,29.86,East,80,0.0,2.3,57,0.00,CLR,SKC,0.00,WeatherDisplay:10.37,2013-03-22 20:24:00,
2013-03-22 15:29:00,31.2,18.9,29.86,East,80,0.0,0.0,60,0.00,CLR,SKC,0.00,WeatherDisplay:10.37,2013-03-22 20:29:00,
2013-03-22 15:34:00,31.4,19.1,29.86,East,80,0.5,1.1,60,0.00,CLR,SKC,0.00,WeatherDisplay:10.37,2013-03-22 20:34:00,
2013-03-22 15:39:00,31.3,19.4,29.86,East,80,0.0,1.1,61,0.00,CLR,SKC,0.00,WeatherDisplay:10.37,2013-03-22 20:39:00,
2013-03-22 15:44:00,31.2,19.3,29.86,East,80,0.2,1.1,61,0.00,CLR,SKC,0.00,WeatherDisplay:10.37,2013-03-22 20:44:00,
2013-03-22 15:49:00,31.0,17.9,29.86,East,80,0.0,1.1,58,0.00,CLR,SKC,0.00,WeatherDisplay:10.37,2013-03-22 20:49:00,
2013-03-22 15:54:00,31.3,18.6,29.86,East,80,0.0,0.0,59,0.00,CLR,SKC,0.00,WeatherDisplay:10.37,2013-03-22 20:54:00,
2013-03-22 15:59:00,31.3,18.6,29.86,East,80,0.0,1.1,59,0.00,CLR,SKC,0.00,WeatherDisplay:10.37,2013-03-22 20:59:00,
2013-03-22 16:04:00,31.0,19.1,29.86,East,80,0.0,1.1,61,0.00,CLR,SKC,0.00,WeatherDisplay:10.37,2013-03-22 21:04:00,
2013-03-22 16:09:00,30.9,19.0,29.86,East,80,0.7,2.0,61,0.00,CLR,SKC,0.00,WeatherDisplay:10.37,2013-03-22 21:09:00,
2013-03-22 16:14:00,30.8,18.5,29.86,East,80,0.0,1.1,60,0.00,CLR,SKC,0.00,WeatherDisplay:10.37,2013-03-22 21:14:00,
2013-03-22 16:19:00,30.5,18.6,29.86,East,80,0.5,2.3,61,0.00,CLR,SKC,0.00,WeatherDisplay:10.37,2013-03-22 21:19:00,
2013-03-22 16:24:00,30.3,18.5,29.86,East,80,0.0,1.1,61,0.00,CLR,SKC,0.00,WeatherDisplay:10.37,2013-03-22 21:24:00,
2013-03-22 16:29:00,30.2,18.4,29.86,East,80,0.0,1.1,61,0.00,CLR,SKC,0.00,WeatherDisplay:10.37,2013-03-22 21:29:00,
2013-03-22 16:34:00,30.1,18.3,29.86,East,80,0.6,2.0,61,0.00,CLR,SKC,0.00,WeatherDisplay:10.37,2013-03-22 21:34:00,
2013-03-22 16:39:00,29.4,18.0,29.86,East,80,0.1,2.3,62,0.00,CLR,SKC,0.00,WeatherDisplay:10.37,2013-03-22 21:39:00,
2013-03-22 16:44:00,29.3,18.6,29.86,East,80,1.3,2.3,64,0.00,CLR,SKC,0.00,WeatherDisplay:10.37,2013-03-22 21:44:00,
2013-03-22 16:49:00,29.1,18.1,29.86,East,80,0.9,2.3,63,0.00,CLR,SKC,0.00,WeatherDisplay:10.37,2013-03-22 21:49:00,
2013-03-22 16:54:00,29.0,17.6,29.86,East,80,0.0,1.1,62,0.00,CLR,SKC,0.00,WeatherDisplay:10.37,2013-03-22 21:54:00,
2013-03-22 16:59:00,29.0,18.0,29.86,East,80,0.0,0.0,63,0.00,CLR,SKC,0.00,WeatherDisplay:10.37,2013-03-22 21:59:00,
2013-03-22 17:04:00,29.0,17.2,29.86,East,80,0.0,0.0,61,0.00,CLR,SKC,0.00,WeatherDisplay:10.37,2013-03-22 22:04:00,
2013-03-22 17:09:00,29.0,18.3,29.86,East,80,0.0,0.0,64,0.00,CLR,SKC,0.00,WeatherDisplay:10.37,2013-03-22 22:09:00,
2013-03-22 17:14:00,29.2,17.0,29.86,East,80,0.0,0.0,60,0.00,CLR,SKC,0.00,WeatherDisplay:10.37,2013-03-22 22:14:00,
2013-03-22 17:19:00,29.2,17.8,29.86,East,80,0.0,0.0,62,0.00,CLR,SKC,0.00,WeatherDisplay:10.37,2013-03-22 22:19:00,
2013-03-22 17:24:00,29.1,17.3,29.86,East,80,0.1,1.1,61,0.00,CLR,SKC,0.00,WeatherDisplay:10.37,2013-03-22 22:24:00,
2013-03-22 17:29:00,29.1,17.7,29.86,East,80,0.0,0.0,62,0.00,CLR,SKC,0.00,WeatherDisplay:10.37,2013-03-22 22:29:00,
2013-03-22 17:34:00,29.1,17.7,29.87,East,80,0.1,2.3,62,0.00,CLR,SKC,0.00,WeatherDisplay:10.37,2013-03-22 22:34:00,
2013-03-22 17:39:00,29.2,18.2,29.87,East,80,0.0,1.0,63,0.00,CLR,SKC,0.00,WeatherDisplay:10.37,2013-03-22 22:39:00,
2013-03-22 17:44:00,29.4,18.3,29.86,East,80,0.8,2.3,63,0.00,CLR,SKC,0.00,WeatherDisplay:10.37,2013-03-22 22:44:00,
2013-03-22 17:49:00,29.4,17.6,29.86,East,80,0.8,2.3,61,0.00,CLR,SKC,0.00,WeatherDisplay:10.37,2013-03-22 22:49:00,
2013-03-22 17:54:00,29.3,17.9,29.86,East,80,0.7,2.3,62,0.00,CLR,SKC,0.00,WeatherDisplay:10.37,2013-03-22 22:54:00,
2013-03-22 17:59:00,29.2,17.8,29.86,East,80,0.0,1.1,62,0.00,CLR,SKC,0.00,WeatherDisplay:10.37,2013-03-22 22:59:00,
2013-03-22 18:04:00,29.2,17.0,29.86,East,80,0.0,1.1,60,0.00,CLR,SKC,0.00,WeatherDisplay:10.37,2013-03-22 23:04:00,
2013-03-22 18:09:00,29.2,17.4,29.86,East,80,0.0,0.0,61,0.00,CLR,SKC,0.00,WeatherDisplay:10.37,2013-03-22 23:09:00,
2013-03-22 18:14:00,29.0,17.6,29.86,East,80,0.4,2.0,62,0.00,CLR,SKC,0.00,WeatherDisplay:10.37,2013-03-22 23:14:00,
2013-03-22 18:19:00,29.0,17.2,29.87,East,80,0.1,1.1,61,0.00,CLR,SKC,0.00,WeatherDisplay:10.37,2013-03-22 23:19:00,
2013-03-22 18:24:00,29.0,17.2,29.86,East,80,0.0,1.1,61,0.00,CLR,SKC,0.00,WeatherDisplay:10.37,2013-03-22 23:24:00,
2013-03-22 18:29:00,28.8,17.0,29.86,East,80,0.0,1.1,61,0.00,CLR,SKC,0.00,WeatherDisplay:10.37,2013-03-22 23:29:00,
2013-03-22 18:34:00,28.6,17.2,29.86,East,80,0.0,1.0,62,0.00,CLR,SKC,0.00,WeatherDisplay:10.37,2013-03-22 23:34:00,
2013-03-22 18:39:00,28.4,17.4,29.86,East,80,0.0,0.0,63,0.00,CLR,SKC,0.00,WeatherDisplay:10.37,2013-03-22 23:39:00,
2013-03-22 18:44:00,28.2,17.6,29.86,East,80,0.0,0.0,64,0.00,CLR,SKC,0.00,WeatherDisplay:10.37,2013-03-22 23:44:00,
2013-03-22 18:49:00,28.1,17.8,29.86,East,80,0.0,0.0,65,0.00,CLR,SKC,0.00,WeatherDisplay:10.37,2013-03-22 23:49:00,
2013-03-22 18:54:00,27.8,18.6,29.87,East,80,0.0,0.0,68,0.00,CLR,SKC,0.00,WeatherDisplay:10.37,2013-03-22 23:54:00,
2013-03-22 18:59:00,27.4,18.9,29.87,East,80,0.0,0.0,70,0.00,CLR,SKC,0.00,WeatherDisplay:10.37,2013-03-22 23:59:00,
2013-03-22 19:04:00,27.2,18.4,29.87,East,80,0.0,0.0,69,0.00,CLR,SKC,0.00,WeatherDisplay:10.37,2013-03-23 00:04:00,
2013-03-22 19:09:00,27.1,17.9,29.87,East,80,0.0,0.0,68,0.00,CLR,SKC,0.00,WeatherDisplay:10.37,2013-03-23 00:09:00,
2013-03-22 19:14:00,27.1,17.9,29.87,East,80,0.0,0.0,68,0.00,CLR,SKC,0.00,WeatherDisplay:10.37,2013-03-23 00:14:00,
2013-03-22 19:19:00,27.1,18.3,29.87,East,80,0.0,0.0,69,0.00,CLR,SKC,0.00,WeatherDisplay:10.37,2013-03-23 00:19:00,
2013-03-22 19:24:00,27.1,18.6,29.87,East,80,0.0,0.0,70,0.00,CLR,SKC,0.00,WeatherDisplay:10.37,2013-03-23 00:24:00,
2013-03-22 19:29:00,27.0,19.2,29.87,East,80,0.0,0.0,72,0.00,CLR,SKC,0.00,WeatherDisplay:10.37,2013-03-23 00:29:00,
2013-03-22 19:34:00,27.0,18.8,29.87,East,80,0.0,0.0,71,0.00,CLR,SKC,0.00,WeatherDisplay:10.37,2013-03-23 00:34:00,
2013-03-22 19:39:00,26.9,18.7,29.87,East,80,0.0,0.0,71,0.00,CLR,SKC,0.00,WeatherDisplay:10.37,2013-03-23 00:39:00,
2013-03-22 19:44:00,27.0,19.2,29.87,East,80,0.0,0.0,72,0.00,CLR,SKC,0.00,WeatherDisplay:10.37,2013-03-23 00:44:00,
2013-03-22 19:49:00,26.9,18.4,29.87,East,80,0.0,0.0,70,0.00,CLR,SKC,0.00,WeatherDisplay:10.37,2013-03-23 00:49:00,
2013-03-22 19:54:00,26.9,18.1,29.87,East,80,0.0,0.0,69,0.00,CLR,SKC,0.00,WeatherDisplay:10.37,2013-03-23 00:54:00,
2013-03-22 19:59:00,26.9,18.1,29.87,East,80,0.0,0.0,69,0.00,CLR,SKC,0.00,WeatherDisplay:10.37,2013-03-23 00:59:00,
2013-03-22 20:04:00,27.0,18.5,29.87,East,80,0.0,0.0,70,0.00,SCT,SKC,0.00,WeatherDisplay:10.37,2013-03-23 01:04:00,
2013-03-22 20:09:00,26.9,18.1,29.87,East,80,0.0,0.0,69,0.00,SCT,SKC,0.00,WeatherDisplay:10.37,2013-03-23 01:09:00,
2013-03-22 20:14:00,26.9,18.4,29.88,East,80,0.0,0.0,70,0.00,SCT,SKC,0.00,WeatherDisplay:10.37,2013-03-23 01:14:00,
2013-03-22 20:19:00,26.9,18.7,29.88,East,80,0.0,0.0,71,0.00,SCT,SKC,0.00,WeatherDisplay:10.37,2013-03-23 01:19:00,
2013-03-22 20:24:00,26.8,18.7,29.88,East,80,0.0,0.0,71,0.00,SCT,SKC,0.00,WeatherDisplay:10.37,2013-03-23 01:24:00,
2013-03-22 20:29:00,26.8,19.0,29.88,East,80,0.0,0.0,72,0.00,SCT,SKC,0.00,WeatherDisplay:10.37,2013-03-23 01:29:00,
2013-03-22 20:34:00,26.7,18.9,29.88,East,80,0.0,0.0,72,0.00,SCT,SKC,0.00,WeatherDisplay:10.37,2013-03-23 01:34:00,
2013-03-22 20:39:00,26.7,18.6,29.88,East,80,0.0,0.0,71,0.00,SCT,SKC,0.00,WeatherDisplay:10.37,2013-03-23 01:39:00,
2013-03-22 20:44:00,26.8,19.0,29.88,East,80,0.0,0.0,72,0.00,SCT,SKC,0.00,WeatherDisplay:10.37,2013-03-23 01:44:00,
2013-03-22 20:49:00,26.8,18.7,29.89,East,80,0.0,0.0,71,0.00,SCT,SKC,0.00,WeatherDisplay:10.37,2013-03-23 01:49:00,
2013-03-22 20:54:00,26.7,19.2,29.89,East,80,0.0,0.0,73,0.00,SCT,SKC,0.00,WeatherDisplay:10.37,2013-03-23 01:54:00,
2013-03-22 20:59:00,26.7,19.5,29.89,East,80,0.0,0.0,74,0.00,SCT,SKC,0.00,WeatherDisplay:10.37,2013-03-23 01:59:00,
2013-03-22 21:04:00,26.6,19.4,29.89,East,80,0.0,0.0,74,0.00,SCT,SKC,0.00,WeatherDisplay:10.37,2013-03-23 02:04:00,
2013-03-22 21:09:00,26.5,19.6,29.89,East,80,0.0,0.0,75,0.00,SCT,SKC,0.00,WeatherDisplay:10.37,2013-03-23 02:09:00,
2013-03-22 21:14:00,26.5,19.6,29.89,East,80,0.0,0.0,75,0.00,SCT,SKC,0.00,WeatherDisplay:10.37,2013-03-23 02:14:00,
2013-03-22 21:19:00,26.5,19.6,29.89,East,80,0.0,0.0,75,0.00,SCT,SKC,0.00,WeatherDisplay:10.37,2013-03-23 02:19:00,
2013-03-22 21:24:00,26.5,19.6,29.89,East,80,0.0,0.0,75,0.00,SCT,SKC,0.00,WeatherDisplay:10.37,2013-03-23 02:24:00,
2013-03-22 21:29:00,26.4,19.5,29.89,East,80,0.0,0.0,75,0.00,SCT,SKC,0.00,WeatherDisplay:10.37,2013-03-23 02:29:00,
2013-03-22 21:34:00,26.3,19.1,29.89,East,80,0.0,1.1,74,0.00,SCT,SKC,0.00,WeatherDisplay:10.37,2013-03-23 02:34:00,
2013-03-22 21:39:00,26.1,19.3,29.89,East,80,0.0,0.0,75,0.00,SCT,SKC,0.00,WeatherDisplay:10.37,2013-03-23 02:39:00,
2013-03-22 21:44:00,25.9,19.1,29.89,East,80,0.0,0.0,75,0.00,BKN,SKC,0.00,WeatherDisplay:10.37,2013-03-23 02:44:00,
2013-03-22 21:49:00,25.7,18.9,29.90,East,80,0.0,1.1,75,0.00,BKN,SKC,0.00,WeatherDisplay:10.37,2013-03-23 02:49:00,
2013-03-22 21:54:00,25.6,18.8,29.90,East,80,0.8,1.1,75,0.00,BKN,SKC,0.00,WeatherDisplay:10.37,2013-03-23 02:54:00,
2013-03-22 21:59:00,25.4,18.6,29.90,East,80,0.0,1.1,75,0.00,BKN,SKC,0.00,WeatherDisplay:10.37,2013-03-23 02:59:00,
2013-03-22 22:04:00,25.3,18.5,29.90,East,80,0.4,1.1,75,0.00,BKN,SKC,0.00,WeatherDisplay:10.37,2013-03-23 03:04:00,
2013-03-22 22:09:00,25.2,18.4,29.90,East,80,1.0,2.3,75,0.00,BKN,SKC,0.00,WeatherDisplay:10.37,2013-03-23 03:09:00,
2013-03-22 22:14:00,25.0,18.2,29.90,East,80,0.1,1.1,75,0.00,BKN,SKC,0.00,WeatherDisplay:10.37,2013-03-23 03:14:00,
2013-03-22 22:19:00,25.0,18.2,29.90,East,80,0.0,0.0,75,0.00,BKN,SKC,0.00,WeatherDisplay:10.37,2013-03-23 03:19:00,
2013-03-22 22:25:00,25.0,18.2,29.90,East,80,0.0,0.0,75,0.00,SCT,SKC,0.00,WeatherDisplay:10.37,2013-03-23 03:25:00,
2013-03-22 22:30:00,25.0,18.5,29.90,East,80,0.0,0.0,76,0.00,SCT,SKC,0.00,WeatherDisplay:10.37,2013-03-23 03:30:00,
2013-03-22 22:36:00,25.1,18.3,29.90,East,80,0.0,0.0,75,0.00,SCT,SKC,0.00,WeatherDisplay:10.37,2013-03-23 03:36:00,
2013-03-22 22:41:00,25.2,18.4,29.90,East,80,0.0,0.0,75,0.00,SCT,SKC,0.00,WeatherDisplay:10.37,2013-03-23 03:41:00,
2013-03-22 22:47:00,25.2,18.4,29.90,East,80,0.0,0.0,75,0.00,SCT,SKC,0.00,WeatherDisplay:10.37,2013-03-23 03:47:00,
2013-03-22 22:52:00,25.1,18.3,29.91,East,80,0.0,0.0,75,0.00,SCT,SKC,0.00,WeatherDisplay:10.37,2013-03-23 03:52:00,
2013-03-22 22:57:00,25.1,18.3,29.91,East,80,0.0,0.0,75,0.00,SCT,SKC,0.00,WeatherDisplay:10.37,2013-03-23 03:57:00,
2013-03-22 23:00:00,25.1,18.3,29.91,East,80,0.0,0.0,75,0.00,SCT,SKC,0.00,WeatherDisplay:10.37,2013-03-23 04:00:00,
2013-03-22 23:01:00,25.1,18.6,29.91,East,80,0.0,0.0,76,0.00,CLR,SKC,0.00,WeatherDisplay:10.37,2013-03-23 04:01:00,
2013-03-22 23:06:00,25.1,18.3,29.91,East,80,0.0,0.0,75,0.00,CLR,SKC,0.00,WeatherDisplay:10.37,2013-03-23 04:06:00,
2013-03-22 23:11:00,24.8,18.0,29.91,East,80,1.0,2.3,75,0.00,CLR,SKC,0.00,WeatherDisplay:10.37,2013-03-23 04:11:00,
2013-03-22 23:17:00,24.5,17.7,29.91,East,80,0.0,0.0,75,0.00,CLR,SKC,0.00,WeatherDisplay:10.37,2013-03-23 04:17:00,
2013-03-22 23:23:00,24.4,17.6,29.91,East,80,0.0,0.0,75,0.00,CLR,SKC,0.00,WeatherDisplay:10.37,2013-03-23 04:23:00,
2013-03-22 23:28:00,24.4,17.6,29.91,East,80,0.0,0.0,75,0.00,CLR,SKC,0.00,WeatherDisplay:10.37,2013-03-23 04:28:00,
2013-03-22 23:33:00,24.4,17.6,29.90,East,80,0.0,0.0,75,0.00,CLR,SKC,0.00,WeatherDisplay:10.37,2013-03-23 04:33:00,
2013-03-22 23:38:00,24.4,17.6,29.90,East,80,0.0,0.0,75,0.00,CLR,SKC,0.00,WeatherDisplay:10.37,2013-03-23 04:38:00,
2013-03-22 23:43:00,24.4,17.9,29.90,East,80,0.0,0.0,76,0.00,CLR,SKC,0.00,WeatherDisplay:10.37,2013-03-23 04:43:00,
2013-03-22 23:48:00,24.5,17.7,29.91,East,80,0.0,0.0,75,0.00,CLR,SKC,0.00,WeatherDisplay:10.37,2013-03-23 04:48:00,
2013-03-22 23:54:00,24.3,17.5,29.91,East,80,0.0,0.0,75,0.00,CLR,SKC,0.00,WeatherDisplay:10.37,2013-03-23 04:54:00,
2013-03-22 23:59:00,23.8,17.0,29.91,East,80,0.0,0.0,75,0.00,CLR,SKC,0.00,WeatherDisplay:10.37,2013-03-23 04:59:00,